CZ-6A DEB, 61098

Orbit data source: Space-Track

CZ-6A DEB, 61098 is space debris in LEO originally from a launch on Tue, 06 Aug 2024 UTC launched from the Taiyaun Space Center, China (TSC). Debris objects in space refer to the collection of defunct objects orbiting the Earth. Examples of debris include non-operational satellites, rocket bodies, and fragments generated from explosions, collisions, or faulty payload assembly.

Loading next visibility...
Identifier
61098, 2024-140NQ
Orbit
LEO
Country
Flag of CNCN / PRC
Related business
Manufacturer
SAST
Mission
Spacecraft
Bus & Motor
Unknown
Mass
Unknown
Launch date (UTC)
2024-08-06 (2 years ago)
Launch vehicle
Unknown
Launch site
Taiyaun Space Center, China (TSC)
Object type
Payload
Rocket body
Debris
Shape & HBR
Unknown shape, 0.2 m
Radar Cross Section
Medium (>0.1 m² and <1 m²)

Expand to show TLE details & history
Last TLE update: 13 hours ago

TLE from 13 hours ago
0 CZ-6A DEB
1 61098U 24140NQ  26171.29488193  .00016926  00000-0  53698-2 0  9993
2 61098  89.0557 279.3068 0071371 142.6659 217.9532 14.38465888 94105
Epoch: 2026-06-20T07:04Z
TLE epoch observation values (Epoch: 2026-06-20T07:04:37.798Z)
Latitude
-0.00012°
Longitude
-95.36226°
Altitude
806.988 km
Speed
7.429 km/s
True Right ascension
18h 37m 13s
True Declination
0° 00' 00"
Sunlit
Object was in full shadow at epoch
Visualization orbit readout
Latitude
Unknown
Longitude
Unknown
Altitude
Unknown
Speed
Unknown
Apparent Right ascension
Unknown
Apparent Declination
Unknown
Sunlit
N/A
Visualization observer readout
Local Sidereal Time
07:23:57
Azimuth
Unknown
Elevation
Unknown
Doppler factor
Unknown
Orbital elements
Apogee altitude
811.445 km
Perigee altitude
709.547 km
Semi-major axis
7,138.633 km
Eccentricity
0.00714
Inclination
89.0557°
RAAN
279.3068°
Arg. of periapsis
142.6659°
True anomaly
217.45373°
Mean anomaly
217.9532°
Eccentric anomaly
217.70311°
Mean motion
3.59849 °/min
Orbital period
100.04 mins
BSTAR
0.0053698
Loading maneuver chart data...
Computing Atmospheric mass density...
Loading historical data...
Loading historical data...
Loading historical data...
Loading historical data...
Loading historical data...
Loading historical data...
Loading historical data...

Documentation

Showing up to 5 results
|